"startDT [UTC]","vpos","CH4 [ppm]","stdev(CH4) [ppm]","CO2 [ppm]","stdev(CO2) [ppm]","H2O [ppm]","stdev(H2O)","p_LGR [torr]","T_LGR [C]","mt1_LGR [us]","mt2_LGR [us]","T_ECpre [C]","T_EC1 [C]","T_EC2 [C]","p_inlet [hPa]","p_in [hPa]","p_out [hPa]","T_inlet [C]","RH_inlet [%]","dwpt_inlet [C]","T_vent [C]","RH_vent [%]","dwpt_vent [C]","flow_vent [l min-1]","flow_inlet [l min-1]","dwpt_sample [C]","T_room [C]"
2012-05-26 00:00:00,0.0,1.8944,0.0009,401.08,0.18,301.6,26.6,137.94,35.46,24.64,36.40,0.97,-25.48,19.15,-64,564,-927,31.0,14.1,0.5,31.0,0.9,-32.1,5.73,2.23,-26.1,35.1
2012-05-26 00:01:00,0.0,1.8944,0.0011,401.01,0.20,307.5,31.7,137.94,35.47,24.64,36.40,0.98,-25.48,19.19,-64,563,-927,31.1,13.8,0.3,31.0,0.9,-32.1,5.73,2.20,-26.1,35.1
2012-05-26 00:02:00,0.0,1.8942,0.0010,400.94,0.21,308.1,28.1,137.94,35.47,24.64,36.41,0.98,-25.48,19.22,-64,564,-927,31.1,13.7,0.1,31.0,0.9,-32.0,5.73,2.25,-26.1,35.1
2012-05-26 00:03:00,0.0,1.8940,0.0011,401.01,0.26,302.9,25.0,137.94,35.48,24.64,36.40,0.98,-25.47,19.25,-64,564,-927,31.1,13.7,0.1,31.0,0.9,-32.0,5.73,2.22,-26.1,35.1
2012-05-26 00:04:00,0.0,1.8945,0.0009,400.96,0.19,303.2,30.3,137.94,35.48,24.64,36.40,0.97,-25.47,19.28,-64,564,-927,31.1,13.7,0.1,31.0,0.9,-32.0,5.73,2.22,-26.1,35.1
2012-05-26 00:05:00,0.0,1.8950,0.0009,400.91,0.20,304.1,29.4,137.94,35.49,24.64,36.41,0.97,-25.47,19.31,-64,564,-927,31.1,13.8,0.3,31.0,0.9,-32.0,5.73,2.24,-26.1,35.1
2012-05-26 00:06:00,0.0,1.8951,0.0010,401.02,0.20,304.3,29.4,137.94,35.50,24.64,36.40,0.97,-25.47,19.33,-64,564,-927,31.1,13.9,0.3,31.0,0.9,-32.0,5.73,2.20,-26.0,35.1
2012-05-26 00:07:00,0.0,1.8947,0.0009,400.97,0.19,313.3,30.7,137.94,35.50,24.64,36.41,0.97,-25.47,19.36,-64,564,-927,31.1,13.9,0.3,31.0,0.9,-32.0,5.73,2.23,-26.0,35.2
2012-05-26 00:08:00,0.0,1.8946,0.0008,401.06,0.19,307.2,27.9,137.94,35.51,24.64,36.40,0.97,-25.47,19.39,-64,564,-927,31.1,14.1,0.6,31.1,0.9,-32.0,5.73,2.24,-26.0,35.2
2012-05-26 00:09:00,0.0,1.8948,0.0008,401.05,0.19,301.8,28.0,137.94,35.52,24.64,36.40,0.97,-25.47,19.41,-64,564,-927,31.1,13.8,0.2,31.1,0.9,-31.9,5.73,2.20,-26.0,35.2
2012-05-26 00:10:00,0.0,1.8952,0.0010,401.01,0.15,309.1,25.8,137.94,35.52,24.64,36.40,0.97,-25.46,19.44,-64,564,-927,31.1,13.8,0.3,31.1,0.9,-32.0,5.73,2.24,-26.0,35.2
2012-05-26 00:11:00,0.0,1.8949,0.0011,400.96,0.21,310.1,23.4,137.93,35.53,24.64,36.41,0.97,-25.46,19.46,-64,564,-927,31.1,13.8,0.3,31.1,0.9,-31.9,5.73,2.22,-26.0,35.2
2012-05-26 00:12:00,0.0,1.8951,0.0011,400.93,0.20,309.6,27.0,137.93,35.54,24.64,36.41,0.95,-25.46,19.48,-64,564,-927,31.2,13.9,0.4,31.1,0.9,-32.0,5.73,2.21,-26.0,35.2
2012-05-26 00:13:00,0.0,1.8951,0.0009,401.03,0.22,313.5,29.1,137.93,35.54,24.64,36.40,0.96,-25.46,19.50,-64,564,-927,31.2,14.1,0.6,31.1,0.9,-32.0,5.73,2.24,-26.0,35.2
2012-05-26 00:14:00,0.0,1.8958,0.0010,401.06,0.18,304.6,22.0,137.93,35.55,24.64,36.40,0.96,-25.46,19.52,-64,564,-927,31.2,14.1,0.6,31.1,0.9,-32.1,5.73,2.20,-26.0,35.2
2012-05-26 00:15:00,0.0,1.8953,0.0010,401.07,0.16,308.8,30.0,137.94,35.55,24.64,36.40,0.96,-25.46,19.54,-64,564,-927,31.2,14.1,0.6,31.1,0.9,-32.3,5.73,2.23,-26.0,35.3
2012-05-26 00:16:00,0.0,1.8955,0.0009,401.09,0.19,310.9,30.1,137.93,35.56,24.64,36.40,0.97,-25.46,19.57,-64,564,-927,31.2,14.1,0.6,31.1,0.9,-32.3,5.73,2.24,-26.0,35.3
2012-05-26 00:17:00,0.0,1.8958,0.0009,401.10,0.21,321.5,25.1,137.93,35.57,24.64,36.40,0.96,-25.46,19.58,-64,564,-927,31.2,14.1,0.6,31.1,0.9,-32.3,5.73,2.20,-26.0,35.3
2012-05-26 00:18:00,0.0,1.8952,0.0009,401.04,0.17,312.1,25.9,137.94,35.57,24.64,36.40,0.95,-25.46,19.60,-64,564,-927,31.2,14.2,0.7,31.1,0.9,-32.3,5.73,2.24,-26.0,35.3
2012-05-26 00:19:00,0.0,1.8950,0.0009,401.15,0.15,311.3,28.9,137.94,35.57,24.64,36.39,0.96,-25.46,19.61,-64,564,-927,31.2,14.1,0.6,31.2,0.9,-32.3,5.73,2.21,-26.0,35.3
2012-05-26 00:20:00,0.0,1.8950,0.0009,401.05,0.18,315.0,23.0,137.93,35.58,24.64,36.40,0.95,-25.46,19.63,-64,564,-927,31.2,14.0,0.6,31.2,0.9,-32.3,5.73,2.21,-26.0,35.3
2012-05-26 00:21:00,0.0,1.8951,0.0009,401.06,0.17,309.8,27.8,137.93,35.58,24.64,36.40,0.96,-25.46,19.64,-64,564,-927,31.3,14.1,0.7,31.2,0.9,-32.3,5.73,2.24,-26.0,35.4
2012-05-26 00:22:00,0.0,1.8953,0.0011,401.11,0.21,313.7,24.8,137.93,35.59,24.64,36.40,1.01,-25.46,19.56,-64,564,-927,31.3,14.3,0.8,31.2,0.9,-32.3,5.73,2.20,-26.0,35.3
2012-05-26 00:23:00,0.0,1.8950,0.0009,401.15,0.20,309.5,27.6,137.94,35.59,24.64,36.39,1.19,-25.46,18.16,-64,564,-927,31.3,14.3,0.9,31.2,0.9,-32.2,5.73,2.23,-26.0,35.3
2012-05-26 00:24:00,0.0,1.8952,0.0009,401.05,0.17,316.7,29.8,137.93,35.60,24.64,36.40,1.18,-25.45,15.87,-64,564,-927,31.3,14.2,0.8,31.2,0.9,-32.3,5.73,2.23,-26.0,35.3
2012-05-26 00:25:00,0.0,1.8955,0.0010,401.13,0.17,311.2,28.3,137.93,35.60,24.64,36.39,1.02,-25.47,13.44,-64,564,-927,31.3,14.3,0.9,31.2,0.9,-32.3,5.73,2.20,-26.0,35.3
2012-05-26 00:26:00,0.0,1.8953,0.0011,401.13,0.15,310.5,30.7,137.93,35.61,24.64,36.39,1.07,-25.50,11.05,-64,564,-927,31.3,14.2,0.8,31.2,0.9,-32.2,5.73,2.24,-25.9,35.4
2012-05-26 00:27:00,0.0,1.8949,0.0010,401.08,0.18,309.0,26.8,137.93,35.61,24.64,36.40,1.02,-25.51,8.74,-64,564,-927,31.3,14.2,0.8,31.2,0.9,-32.2,5.73,2.21,-25.9,35.3
2012-05-26 00:28:00,0.0,1.8948,0.0010,401.04,0.19,310.1,24.2,137.93,35.62,24.64,36.40,1.10,-25.52,6.53,-64,564,-927,31.3,14.1,0.7,31.2,0.9,-32.3,5.73,2.21,-25.9,35.4
2012-05-26 00:29:00,0.0,1.8957,0.0010,401.12,0.20,313.0,24.8,137.93,35.63,24.64,36.39,1.13,-25.51,4.43,-64,564,-927,31.3,14.3,0.9,31.3,0.9,-32.2,5.73,2.24,-25.9,35.4
2012-05-26 00:30:00,0.0,1.8953,0.0010,401.06,0.21,311.5,24.4,137.93,35.63,24.64,36.39,1.04,-25.51,2.44,-65,565,-927,31.4,14.2,0.8,31.3,0.9,-32.3,5.73,2.20,-25.9,35.4
2012-05-26 00:31:00,0.0,1.8953,0.0011,401.12,0.17,316.2,27.6,137.93,35.64,24.64,36.39,1.07,-25.50,0.56,-64,564,-927,31.4,14.2,0.9,31.3,0.9,-32.3,5.73,2.23,-25.9,35.5
2012-05-26 00:32:00,0.0,1.8954,0.0010,401.09,0.20,314.0,25.1,137.93,35.65,24.64,36.39,1.13,-25.50,-1.07,-64,565,-927,31.4,14.3,0.9,31.3,0.9,-32.3,5.73,2.22,-25.9,35.5
2012-05-26 00:33:00,0.0,1.8957,0.0010,401.02,0.19,313.6,28.1,137.93,35.66,24.64,36.40,1.07,-25.49,-2.77,-65,565,-927,31.4,14.2,0.8,31.3,0.9,-32.1,5.73,2.20,-25.9,35.5
2012-05-26 00:34:00,0.0,1.8950,0.0008,401.02,0.21,315.9,31.9,137.93,35.67,24.64,36.40,1.03,-25.49,-4.37,-64,565,-927,31.4,14.2,0.8,31.3,0.9,-32.2,5.73,2.24,-25.9,35.4
2012-05-26 00:35:00,0.0,1.8951,0.0008,400.99,0.19,316.2,26.8,137.93,35.67,24.64,36.40,1.11,-25.49,-5.80,-65,565,-927,31.4,14.2,0.9,31.3,0.9,-32.2,5.73,2.19,-25.9,35.3
2012-05-26 00:36:00,0.0,1.8952,0.0009,401.01,0.19,307.8,29.8,137.93,35.68,24.64,36.39,1.11,-25.49,-7.18,-65,565,-927,31.4,14.3,1.0,31.3,0.9,-32.1,5.73,2.22,-26.0,35.4
2012-05-26 00:37:00,0.0,1.8954,0.0008,400.94,0.20,318.9,24.5,137.93,35.68,24.64,36.40,1.03,-25.48,-8.49,-64,565,-927,31.4,14.2,0.9,31.3,0.9,-32.2,5.73,2.22,-25.9,35.4
2012-05-26 00:38:00,0.0,1.8954,0.0009,400.91,0.21,318.2,26.7,137.93,35.69,24.64,36.40,1.05,-25.48,-9.63,-65,565,-927,31.4,14.3,1.0,31.3,0.9,-32.2,5.73,2.19,-25.9,35.4
2012-05-26 00:39:00,0.0,1.8954,0.0010,400.95,0.20,313.1,28.1,137.93,35.70,24.64,36.40,1.11,-25.48,-10.78,-64,565,-927,31.4,14.3,1.0,31.3,0.9,-32.2,5.73,2.23,-25.9,35.4
2012-05-26 00:40:00,1.0,1.9024,0.0046,388.15,8.94,314.5,21.6,137.93,35.71,24.64,36.40,1.07,-25.48,-11.95,-64,557,-927,31.4,14.3,1.0,31.3,0.9,-32.2,5.73,2.20,-25.9,35.4
2012-05-26 00:41:00,1.0,1.9084,0.0009,377.99,0.21,320.3,24.1,137.93,35.72,24.64,36.41,1.03,-25.48,-12.95,-64,555,-927,31.4,14.4,1.1,31.4,0.9,-32.2,5.73,2.21,-25.9,35.4
2012-05-26 00:42:00,1.0,1.9082,0.0010,377.81,0.19,326.2,27.8,137.93,35.73,24.64,36.41,1.03,-25.48,-13.90,-64,554,-927,31.5,14.5,1.3,31.4,0.9,-32.2,5.73,2.22,-25.9,35.5
2012-05-26 00:43:00,1.0,1.9084,0.0009,377.85,0.17,324.9,23.9,137.93,35.74,24.64,36.40,1.10,-25.48,-14.78,-64,554,-927,31.5,14.4,1.2,31.4,0.9,-32.2,5.73,2.19,-25.9,35.5
2012-05-26 00:44:00,1.0,1.9084,0.0008,377.76,0.20,324.2,28.1,137.93,35.75,24.64,36.41,1.11,-25.48,-15.64,-64,554,-927,31.5,14.4,1.2,31.4,0.9,-32.2,5.73,2.23,-25.9,35.5
2012-05-26 00:45:00,0.0,1.9021,0.0047,390.67,9.02,322.1,26.6,137.93,35.76,24.64,36.40,1.05,-25.49,-16.51,-65,564,-927,31.5,14.5,1.2,31.4,0.9,-32.2,5.73,2.20,-25.9,35.5
2012-05-26 00:46:00,0.0,1.8963,0.0009,400.91,0.22,318.1,27.5,137.93,35.77,24.64,36.40,1.01,-25.49,-17.15,-65,564,-927,31.5,14.3,1.1,31.5,0.9,-32.1,5.73,2.21,-25.9,35.6
2012-05-26 00:47:00,0.0,1.8967,0.0009,401.00,0.16,321.4,23.9,137.93,35.77,24.64,36.39,1.07,-25.50,-17.88,-65,564,-927,31.6,14.4,1.2,31.5,0.9,-32.1,5.73,2.22,-26.0,35.6
2012-05-26 00:48:00,0.0,1.8962,0.0011,400.97,0.23,319.2,26.9,137.93,35.78,24.64,36.39,1.11,-25.50,-18.60,-65,564,-927,31.6,14.2,1.1,31.5,0.9,-32.1,5.73,2.19,-26.0,35.6
2012-05-26 00:49:00,0.0,1.8962,0.0009,400.94,0.22,316.4,26.8,137.93,35.79,24.64,36.39,1.08,-25.51,-19.26,-65,565,-927,31.6,14.3,1.1,31.5,0.9,-32.0,5.73,2.23,-26.0,35.6
2012-05-26 00:50:00,0.0,1.8967,0.0010,400.91,0.19,308.0,28.4,137.93,35.80,24.64,36.39,1.01,-25.52,-19.89,-65,565,-927,31.6,14.5,1.3,31.5,0.9,-32.3,5.73,2.20,-26.1,35.6
2012-05-26 00:51:00,0.0,1.8975,0.0008,400.95,0.20,318.5,22.6,137.93,35.81,24.64,36.39,1.04,-25.52,-20.48,-65,564,-927,31.6,14.6,1.4,31.5,0.9,-32.4,5.73,2.21,-26.1,35.6
2012-05-26 00:52:00,0.0,1.8960,0.0010,400.87,0.19,316.2,22.9,137.93,35.82,24.64,36.39,1.08,-25.53,-21.02,-65,565,-927,31.7,14.3,1.2,31.6,0.9,-32.4,5.73,2.23,-26.1,35.6
2012-05-26 00:53:00,0.0,1.8963,0.0008,400.92,0.17,320.3,26.0,137.93,35.83,24.64,36.39,1.11,-25.53,-21.54,-65,565,-927,31.7,14.5,1.3,31.6,0.9,-32.5,5.73,2.19,-26.1,35.7
2012-05-26 00:54:00,0.0,1.8963,0.0008,400.85,0.20,312.0,27.8,137.93,35.84,24.64,36.40,1.06,-25.54,-22.02,-65,565,-927,31.7,14.3,1.2,31.6,0.9,-32.5,5.73,2.23,-26.1,35.7
2012-05-26 00:55:00,0.0,1.8963,0.0007,400.84,0.18,312.8,29.0,137.93,35.84,24.64,36.39,1.00,-25.55,-22.48,-65,565,-927,31.7,14.5,1.4,31.6,0.9,-32.5,5.73,2.20,-26.1,35.8
2012-05-26 00:56:00,0.0,1.8967,0.0009,400.84,0.21,307.1,24.1,137.93,35.85,24.64,36.39,1.04,-25.55,-22.91,-65,565,-927,31.7,14.7,1.6,31.6,0.9,-32.4,5.73,2.21,-26.2,35.7
2012-05-26 00:57:00,0.0,1.8975,0.0012,400.93,0.18,314.6,23.7,137.93,35.86,24.63,36.39,1.10,-25.57,-23.31,-65,565,-927,31.7,14.7,1.6,31.6,0.9,-32.4,5.73,2.22,-26.2,35.7
2012-05-26 00:58:00,0.0,1.8966,0.0009,400.87,0.22,307.0,24.8,137.93,35.86,24.64,36.39,1.09,-25.57,-23.68,-65,565,-927,31.7,14.3,1.2,31.6,0.9,-32.4,5.73,2.18,-26.1,35.7
2012-05-26 00:59:00,0.0,1.8969,0.0008,400.70,0.21,307.0,25.0,137.93,35.87,24.64,36.40,1.04,-25.58,-24.05,-65,565,-927,31.7,14.5,1.4,31.6,0.9,-32.4,5.73,2.23,-26.1,35.7
2012-05-26 01:00:00,0.0,1.8975,0.0009,400.82,0.21,310.3,26.2,137.93,35.88,24.64,36.39,1.01,-25.59,-24.38,-65,565,-927,31.7,14.6,1.5,31.6,0.9,-32.4,5.73,2.19,-26.2,35.6
2012-05-26 01:01:00,0.0,1.8966,0.0011,400.77,0.19,313.9,29.4,137.93,35.89,24.64,36.40,1.03,-25.60,-24.70,-65,565,-927,31.7,14.2,1.2,31.6,0.9,-32.5,5.73,2.21,-26.2,35.6
2012-05-26 01:02:00,0.0,1.8970,0.0010,400.81,0.20,309.2,22.6,137.93,35.90,24.64,36.39,1.09,-25.61,-25.00,-65,565,-928,31.7,14.4,1.3,31.7,0.9,-32.4,5.73,2.22,-26.2,35.6
2012-05-26 01:03:00,0.0,1.8969,0.0010,400.76,0.23,303.7,29.3,137.93,35.90,24.64,36.40,1.10,-25.61,-25.28,-65,565,-927,31.7,14.5,1.4,31.7,0.9,-32.3,5.73,2.18,-26.2,35.7
2012-05-26 01:04:00,0.0,1.8966,0.0009,400.86,0.18,315.6,28.7,137.93,35.91,24.64,36.39,1.05,-25.62,-25.54,-65,565,-927,31.7,14.4,1.3,31.7,0.9,-32.4,5.73,2.23,-26.2,35.7
2012-05-26 01:05:00,0.0,1.8968,0.0010,400.95,0.19,310.9,22.3,137.93,35.92,24.64,36.38,1.04,-25.63,-25.51,-65,565,-928,31.7,14.3,1.3,31.7,0.9,-32.4,5.73,2.19,-26.2,35.6
2012-05-26 01:06:00,0.0,1.8974,0.0009,400.80,0.17,315.4,26.6,137.93,35.93,24.64,36.39,1.01,-25.64,-25.42,-65,565,-927,31.8,14.3,1.3,31.7,0.9,-32.4,5.73,2.21,-26.2,35.6
2012-05-26 01:07:00,0.0,1.8971,0.0011,400.82,0.19,316.3,27.4,137.93,35.93,24.64,36.39,1.01,-25.65,-25.60,-65,566,-927,31.8,14.6,1.5,31.7,0.9,-32.3,5.73,2.21,-26.2,35.7
2012-05-26 01:08:00,0.0,1.8977,0.0010,400.92,0.21,317.9,28.5,137.92,35.94,24.64,36.39,1.02,-25.65,-25.49,-65,566,-928,31.8,14.5,1.5,31.7,0.9,-32.4,5.73,2.19,-26.2,35.7
2012-05-26 01:09:00,0.0,1.8969,0.0010,400.85,0.19,315.7,28.2,137.93,35.95,24.64,36.39,1.11,-25.66,-25.44,-65,566,-927,31.8,14.3,1.3,31.7,0.9,-32.4,5.73,2.23,-26.2,35.7
2012-05-26 01:10:00,0.0,1.8970,0.0011,400.80,0.18,323.1,27.0,137.93,35.96,24.64,36.39,1.07,-25.66,-25.63,-65,566,-927,31.8,14.5,1.4,31.7,0.9,-32.5,5.73,2.19,-26.1,35.7
2012-05-26 01:11:00,0.0,1.8972,0.0011,400.90,0.17,318.9,26.4,137.92,35.97,24.64,36.39,1.01,-25.67,-25.50,-65,566,-928,31.8,14.7,1.6,31.7,0.9,-32.4,5.73,2.22,-26.1,35.7
2012-05-26 01:12:00,0.0,1.8974,0.0010,400.90,0.21,314.4,26.3,137.93,35.98,24.64,36.39,1.03,-25.68,-25.47,-65,566,-927,31.8,14.7,1.6,31.7,0.9,-32.3,5.73,2.21,-26.1,35.7
2012-05-26 01:13:00,0.0,1.8976,0.0009,400.84,0.18,319.1,29.3,137.93,35.99,24.64,36.39,1.00,-25.68,-25.66,-65,566,-927,31.8,14.7,1.7,31.7,0.9,-32.3,5.73,2.19,-26.1,35.7
2012-05-26 01:14:00,0.0,1.8979,0.0010,400.93,0.19,331.3,30.2,137.93,36.00,24.64,36.39,1.04,-25.69,-25.52,-65,566,-928,31.9,14.9,1.9,31.7,0.9,-32.4,5.73,2.23,-26.1,35.8
2012-05-26 01:15:00,0.0,1.8977,0.0010,400.93,0.16,323.2,26.1,137.92,36.00,24.64,36.39,1.05,-25.69,-25.49,-65,566,-927,31.8,15.1,2.1,31.8,0.8,-32.5,5.73,2.18,-26.1,35.8
2012-05-26 01:16:00,0.0,1.8980,0.0009,400.92,0.17,317.7,28.1,137.93,36.01,24.64,36.38,1.09,-25.70,-25.68,-65,566,-927,31.9,15.0,2.0,31.8,0.8,-32.6,5.73,2.22,-26.1,35.8
2012-05-26 01:17:00,0.0,1.8974,0.0009,400.92,0.21,323.9,27.2,137.92,36.02,24.64,36.39,1.03,-25.71,-25.52,-65,566,-927,31.9,14.9,1.9,31.8,0.8,-32.6,5.73,2.20,-26.1,35.8
2012-05-26 01:18:00,0.0,1.8978,0.0009,400.89,0.20,322.8,30.0,137.92,36.03,24.64,36.39,1.07,-25.71,-25.51,-65,566,-928,31.9,14.7,1.7,31.8,0.8,-32.7,5.73,2.19,-26.1,35.8
2012-05-26 01:19:00,0.0,1.8976,0.0011,400.92,0.18,323.6,24.9,137.93,36.04,24.64,36.38,1.00,-25.72,-25.71,-65,566,-927,31.9,14.9,1.9,31.8,0.8,-32.7,5.73,2.22,-26.1,35.8
2012-05-26 01:20:00,0.0,1.8975,0.0009,400.94,0.20,324.8,25.2,137.93,36.05,24.64,36.39,1.05,-25.73,-25.53,-65,566,-927,31.9,15.4,2.3,31.8,0.8,-32.7,5.73,2.18,-26.1,35.7
2012-05-26 01:21:00,0.0,1.8976,0.0010,401.07,0.18,325.4,30.6,137.93,36.06,24.64,36.38,0.94,-25.45,-25.54,-65,566,-927,31.9,15.4,2.4,31.8,0.9,-32.2,5.73,2.22,-26.1,35.8
2012-05-26 01:22:00,0.0,1.8981,0.0008,401.01,0.19,325.8,28.8,137.92,36.07,24.64,36.38,1.00,-23.91,-25.71,-65,566,-927,31.9,15.2,2.2,31.8,0.9,-31.4,5.73,2.19,-26.1,35.9
2012-05-26 01:23:00,0.0,1.8984,0.0009,400.97,0.20,319.4,31.4,137.93,36.08,24.64,36.38,0.97,-21.98,-25.86,-65,566,-927,31.9,15.4,2.4,31.8,1.1,-30.1,5.73,2.20,-26.1,35.9
2012-05-26 01:24:00,0.0,1.8979,0.0011,401.08,0.18,322.9,30.1,137.93,36.09,24.64,36.38,0.96,-20.04,-25.97,-65,566,-927,31.9,15.6,2.5,31.8,1.1,-29.3,5.73,2.22,-26.2,35.8
2012-05-26 01:25:00,0.0,1.8986,0.0010,401.01,0.20,315.2,28.1,137.93,36.09,24.64,36.39,0.92,-18.17,-26.05,-65,566,-927,31.9,15.5,2.4,31.8,1.2,-29.1,5.73,2.19,-26.3,35.7
2012-05-26 01:26:00,0.0,1.8986,0.0010,401.03,0.22,312.7,27.7,137.93,36.09,24.64,36.38,0.89,-16.40,-26.11,-65,566,-927,31.8,15.6,2.5,31.7,1.2,-29.2,5.73,2.22,-26.4,35.7
2012-05-26 01:27:00,0.0,1.8989,0.0009,401.03,0.18,309.1,30.6,137.93,36.10,24.64,36.38,0.88,-14.71,-26.16,-65,566,-927,31.8,15.6,2.5,31.7,1.1,-29.5,5.73,2.22,-26.5,35.5
2012-05-26 01:28:00,0.0,1.8988,0.0009,401.12,0.20,296.8,29.6,137.93,36.10,24.64,36.38,0.91,-13.11,-26.20,-65,566,-927,31.7,15.6,2.5,31.6,1.1,-29.9,5.73,2.20,-26.6,35.5
2012-05-26 01:29:00,0.0,1.8985,0.0009,401.08,0.20,291.2,23.7,137.93,36.09,24.64,36.38,0.93,-11.58,-26.24,-65,566,-927,31.7,15.9,2.6,31.6,1.1,-30.1,5.73,2.23,-26.6,35.5
2012-05-26 01:30:00,0.0,1.8989,0.0009,401.09,0.15,291.5,27.4,137.93,36.09,24.64,36.38,0.93,-10.13,-26.27,-65,566,-927,31.6,16.0,2.7,31.5,1.1,-30.3,5.73,2.23,-26.7,35.4
2012-05-26 01:31:00,0.0,1.8984,0.0009,401.05,0.18,285.7,30.5,137.94,36.09,24.64,36.38,0.95,-8.75,-26.30,-65,565,-927,31.5,16.0,2.6,31.4,1.0,-30.7,5.73,2.20,-26.8,35.3
2012-05-26 01:32:00,0.0,1.8982,0.0010,401.05,0.16,281.3,28.4,137.94,36.08,24.64,36.38,0.97,-7.44,-26.33,-65,565,-927,31.5,16.2,2.7,31.4,1.0,-30.9,5.73,2.22,-26.9,35.2
2012-05-26 01:33:00,0.0,1.8982,0.0009,401.07,0.18,274.6,28.6,137.94,36.07,24.64,36.37,0.96,-6.20,-26.35,-65,565,-927,31.4,16.4,2.9,31.3,1.0,-31.0,5.73,2.25,-27.0,35.1
2012-05-26 01:34:00,0.0,1.8985,0.0012,401.04,0.16,273.8,24.4,137.94,36.07,24.64,36.38,0.96,-5.03,-26.37,-65,565,-927,31.4,16.3,2.7,31.3,1.0,-31.3,5.73,2.23,-27.0,35.0
2012-05-26 01:35:00,0.0,1.8983,0.0008,401.07,0.17,268.2,25.0,137.94,36.06,24.64,36.38,0.96,-3.92,-26.39,-65,564,-927,31.3,16.6,3.0,31.2,1.0,-31.3,5.73,2.22,-27.0,35.0
2012-05-26 01:36:00,0.0,1.8978,0.0012,401.04,0.17,256.3,25.0,137.94,36.06,24.64,36.37,0.93,-2.86,-26.40,-65,564,-927,31.3,16.7,3.0,31.2,1.0,-31.6,5.73,2.25,-27.0,35.0
2012-05-26 01:37:00,0.0,1.8977,0.0008,401.00,0.18,263.5,27.5,137.94,36.05,24.64,36.37,0.93,-1.86,-26.41,-65,564,-927,31.2,16.8,3.0,31.1,1.0,-31.6,5.73,2.24,-27.1,34.9
2012-05-26 01:38:00,0.0,1.8975,0.0009,400.92,0.16,256.1,26.8,137.94,36.04,24.64,36.38,0.89,-0.90,-26.42,-65,564,-927,31.2,16.8,3.0,31.1,1.0,-31.7,5.73,2.22,-27.1,34.7
2012-05-26 01:39:00,0.0,1.8973,0.0010,400.88,0.18,255.2,30.0,137.94,36.03,24.64,36.38,0.93,0.01,-26.43,-65,564,-927,31.1,16.9,3.1,31.0,0.9,-32.0,5.73,2.25,-27.2,34.6
2012-05-26 01:40:00,0.0,1.8970,0.0008,400.86,0.19,255.1,27.1,137.95,36.03,24.64,36.38,0.93,0.88,-26.44,-65,563,-926,31.0,17.1,3.2,30.9,0.9,-32.2,5.73,2.26,-27.2,34.6
2012-05-26 01:41:00,0.0,1.8971,0.0009,400.90,0.19,247.6,26.1,137.95,36.02,24.64,36.37,0.93,1.69,-26.45,-65,563,-926,31.0,17.4,3.4,30.9,0.9,-32.1,5.73,2.24,-27.3,34.6
2012-05-26 01:42:00,0.0,1.8969,0.0009,400.85,0.21,244.8,29.1,137.95,36.01,24.64,36.38,0.95,2.46,-26.45,-65,563,-926,30.9,17.5,3.4,30.8,0.9,-32.5,5.73,2.23,-27.3,34.4
2012-05-26 01:43:00,0.0,1.8970,0.0009,400.74,0.21,240.5,25.5,137.95,36.00,24.64,36.38,0.95,3.09,-26.46,-65,563,-926,30.8,17.5,3.4,30.8,0.9,-32.4,5.73,2.25,-27.3,34.4
2012-05-26 01:44:00,0.0,1.8975,0.0009,400.76,0.19,234.4,30.3,137.95,35.99,24.64,36.38,0.95,3.55,-26.46,-65,563,-926,30.8,17.5,3.3,30.7,0.9,-32.4,5.73,2.27,-27.3,34.4
2012-05-26 01:45:00,0.0,1.8970,0.0008,400.77,0.20,235.1,27.6,137.95,35.98,24.64,36.38,0.96,4.03,-26.46,-65,562,-926,30.8,17.4,3.2,30.7,0.9,-32.5,5.73,2.26,-27.3,34.4
2012-05-26 01:46:00,0.0,1.8960,0.0009,400.70,0.18,239.1,20.9,137.95,35.97,24.64,36.38,0.96,4.56,-26.47,-65,562,-926,30.7,17.2,3.0,30.7,0.9,-32.5,5.73,2.24,-27.3,34.3
2012-05-26 01:47:00,0.0,1.8965,0.0009,400.74,0.21,237.5,30.3,137.95,35.96,24.63,36.37,0.96,5.16,-26.47,-65,562,-926,30.7,17.1,2.9,30.6,0.9,-32.5,5.73,2.25,-27.3,34.3
2012-05-26 01:48:00,0.0,1.8955,0.0010,400.74,0.18,234.6,26.3,137.95,35.94,24.63,36.37,0.96,5.73,-26.47,-65,562,-926,30.6,17.2,2.9,30.6,0.9,-32.6,5.73,2.27,-27.3,34.2
2012-05-26 01:49:00,0.0,1.8958,0.0010,400.64,0.16,238.6,26.9,137.95,35.93,24.64,36.37,0.97,6.28,-26.48,-65,562,-926,30.6,17.3,3.0,30.5,0.9,-32.9,5.73,2.27,-27.4,34.1
2012-05-26 01:50:00,0.0,1.8951,0.0009,400.61,0.21,233.4,22.5,137.95,35.92,24.63,36.38,0.96,6.80,-26.48,-65,561,-926,30.6,17.1,2.8,30.5,0.9,-33.0,5.73,2.25,-27.4,34.1
2012-05-26 01:51:00,0.0,1.8954,0.0009,400.53,0.20,227.8,28.1,137.95,35.91,24.63,36.38,0.97,7.29,-26.48,-65,561,-925,30.5,17.4,3.0,30.5,0.9,-32.9,5.73,2.25,-27.4,34.2
2012-05-26 01:52:00,0.0,1.8950,0.0009,400.59,0.20,226.5,27.6,137.95,35.90,24.64,36.38,0.96,7.76,-26.47,-64,561,-926,30.5,17.3,2.9,30.4,0.9,-33.0,5.73,2.26,-27.4,34.1
2012-05-26 01:53:00,0.0,1.8946,0.0009,400.61,0.19,227.0,24.3,137.95,35.89,24.64,36.37,0.96,8.21,-26.47,-65,561,-925,30.5,17.3,2.9,30.4,0.9,-32.9,5.73,2.28,-27.4,34.1
2012-05-26 01:54:00,0.0,1.8947,0.0010,400.56,0.19,220.4,25.3,137.96,35.88,24.64,36.38,0.95,8.64,-26.47,-64,561,-925,30.4,17.3,2.9,30.4,0.9,-32.9,5.73,2.26,-27.4,34.1
2012-05-26 01:55:00,0.0,1.8938,0.0009,400.51,0.19,229.2,23.7,137.96,35.87,24.64,36.38,0.93,9.06,-26.47,-64,561,-925,30.4,17.3,2.8,30.3,0.9,-32.8,5.73,2.25,-27.4,34.1
2012-05-26 01:56:00,0.0,1.8943,0.0010,400.45,0.20,223.6,24.7,137.96,35.86,24.63,36.38,0.94,9.46,-26.47,-64,560,-925,30.3,17.5,2.9,30.3,0.9,-33.0,5.73,2.26,-27.4,34.0
2012-05-26 01:57:00,0.0,1.8938,0.0008,400.49,0.20,220.1,25.3,137.96,35.84,24.63,36.38,0.96,9.84,-26.48,-64,560,-925,30.3,17.5,2.9,30.3,0.9,-33.2,5.73,2.27,-27.4,34.0
2012-05-26 01:58:00,0.0,1.8935,0.0010,400.46,0.20,221.7,24.5,137.96,35.83,24.64,36.38,0.93,10.22,-26.47,-64,560,-925,30.2,17.7,3.1,30.2,0.9,-33.1,5.73,2.28,-27.4,34.0
2012-05-26 01:59:00,0.0,1.8936,0.0009,400.47,0.18,215.5,25.7,137.96,35.82,24.64,36.38,0.94,10.59,-26.47,-64,560,-925,30.2,17.6,2.9,30.2,0.9,-32.4,5.73,2.27,-27.4,33.9
2012-05-26 02:00:00,0.0,1.8929,0.0008,400.43,0.20,207.5,29.1,137.96,35.81,24.64,36.38,0.93,10.94,-26.47,-64,560,-925,30.2,17.4,2.8,30.1,1.0,-32.2,5.73,2.25,-27.4,33.7
2012-05-26 02:01:00,0.0,1.8928,0.0009,400.40,0.18,213.1,28.6,137.96,35.80,24.64,36.38,0.95,11.29,-26.47,-64,560,-925,30.1,17.4,2.7,30.1,1.0,-32.2,5.73,2.26,-27.5,33.7
2012-05-26 02:02:00,0.0,1.8928,0.0009,400.41,0.19,205.2,27.6,137.96,35.79,24.64,36.38,0.96,11.61,-26.47,-64,559,-925,30.1,17.4,2.7,30.1,1.0,-32.1,5.73,2.27,-27.5,33.7
2012-05-26 02:03:00,0.0,1.8928,0.0009,400.37,0.24,205.1,27.6,137.96,35.77,24.64,36.38,0.94,11.93,-26.48,-64,559,-925,30.1,17.6,2.8,30.0,1.0,-32.3,5.73,2.28,-27.5,33.6
2012-05-26 02:04:00,0.0,1.8924,0.0008,400.42,0.17,200.2,27.2,137.96,35.76,24.63,36.38,0.95,12.23,-26.47,-64,559,-925,30.0,17.7,2.8,30.0,1.0,-32.2,5.73,2.28,-27.5,33.6
2012-05-26 02:05:00,0.0,1.8919,0.0010,400.48,0.21,197.6,25.6,137.96,35.74,24.64,36.38,0.95,12.53,-26.47,-64,559,-925,30.0,17.6,2.7,29.9,1.0,-32.3,5.73,2.26,-27.6,33.6
2012-05-26 02:06:00,0.0,1.8916,0.0009,400.31,0.20,195.7,29.3,137.96,35.73,24.64,36.38,0.96,12.81,-26.48,-64,559,-925,29.9,17.3,2.5,29.9,1.0,-32.2,5.73,2.26,-27.6,33.6
2012-05-26 02:07:00,0.0,1.8906,0.0011,400.29,0.17,195.7,24.8,137.96,35.71,24.64,36.38,0.96,13.08,-26.48,-64,559,-925,29.9,17.2,2.4,29.9,1.0,-32.2,5.73,2.27,-27.6,33.5
2012-05-26 02:08:00,0.0,1.8909,0.0010,400.31,0.19,188.5,30.5,137.96,35.70,24.64,36.38,0.96,13.34,-26.47,-64,559,-925,29.9,17.4,2.5,29.9,1.0,-32.2,5.73,2.28,-27.6,33.5
2012-05-26 02:09:00,0.0,1.8903,0.0009,400.30,0.15,182.1,24.4,137.97,35.69,24.64,36.38,0.96,13.58,-26.47,-64,558,-925,29.9,17.2,2.3,29.8,1.0,-32.2,5.73,2.28,-27.6,33.5
2012-05-26 02:10:00,0.0,1.8907,0.0009,400.20,0.17,189.3,29.2,137.97,35.67,24.64,36.39,0.95,13.83,-26.48,-64,558,-924,29.8,17.3,2.4,29.8,1.0,-32.2,5.73,2.28,-27.6,33.5
2012-05-26 02:11:00,0.0,1.8905,0.0010,400.25,0.17,183.0,28.6,137.97,35.66,24.64,36.38,0.96,14.04,-26.47,-64,558,-924,29.8,17.2,2.3,29.8,1.0,-32.3,5.73,2.27,-27.7,33.4
2012-05-26 02:12:00,0.0,1.8902,0.0012,400.23,0.20,183.9,26.9,137.97,35.64,24.64,36.38,0.95,14.26,-26.47,-64,558,-925,29.8,17.3,2.3,29.8,1.0,-32.3,5.73,2.26,-27.7,33.3
2012-05-26 02:13:00,0.0,1.8904,0.0008,400.21,0.18,180.0,29.1,137.97,35.63,24.64,36.39,0.96,14.47,-26.47,-64,558,-925,29.7,17.4,2.4,29.7,1.0,-32.3,5.73,2.27,-27.7,33.3
2012-05-26 02:14:00,0.0,1.8902,0.0008,400.24,0.19,175.1,23.7,137.97,35.61,24.64,36.38,0.96,14.67,-26.48,-64,558,-924,29.7,17.6,2.5,29.7,1.0,-32.4,5.73,2.28,-27.7,33.4
2012-05-26 02:15:00,0.0,1.8900,0.0010,400.24,0.20,175.5,25.7,137.97,35.60,24.64,36.38,0.96,14.86,-26.47,-64,558,-924,29.7,17.6,2.5,29.7,1.0,-32.3,5.73,2.29,-27.6,33.3
2012-05-26 02:16:00,0.0,1.8898,0.0009,400.18,0.17,173.6,25.4,137.97,35.58,24.64,36.39,0.96,15.03,-26.48,-64,558,-924,29.7,17.7,2.6,29.7,1.0,-32.3,5.73,2.28,-27.6,33.3
2012-05-26 02:17:00,0.0,1.8895,0.0009,400.18,0.16,181.3,28.8,137.97,35.57,24.64,36.38,0.96,15.21,-26.48,-64,558,-924,29.7,17.9,2.7,29.7,1.0,-32.3,5.73,2.26,-27.5,33.4
2012-05-26 02:18:00,0.0,1.8894,0.0011,400.04,0.15,188.0,31.5,137.97,35.56,24.64,36.39,0.96,15.38,-26.48,-64,558,-924,29.7,18.0,2.8,29.7,1.0,-32.3,5.73,2.26,-27.5,33.4
2012-05-26 02:19:00,0.0,1.8895,0.0008,400.11,0.15,190.9,24.1,137.97,35.55,24.64,36.39,0.96,15.54,-26.47,-63,558,-924,29.7,18.2,3.0,29.7,1.0,-32.3,5.73,2.28,-27.4,33.4
2012-05-26 02:20:00,0.0,1.8899,0.0009,400.17,0.19,185.3,28.6,137.96,35.54,24.64,36.39,0.96,15.69,-26.47,-63,558,-924,29.7,18.3,3.1,29.7,1.0,-32.3,5.73,2.29,-27.4,33.5